Weather History for KPIR - December, 2012

Change the Weather History Date:

Thursday, December 6, 2012

  Actual Average Record
Temperature  
Mean Temperature 38 °F 24 °F  
Max Temperature 47 °F 34 °F 74 °F (1939)
Min Temperature 29 °F 14 °F -23 °F (1950)
Degree Days  
Heating Degree Days 27 41  
Month to date heating degree days 139 241  
Since 1 July heating degree days 1713 1861  
Cooling Degree Days 0 0  
Month to date cooling degree days 0 0  
Year to date cooling degree days 1112 868  
Moisture  
Dew Point 21 °F    
Average Humidity 53    
Maximum Humidity 69    
Minimum Humidity 37    
Precipitation  
Precipitation 0.00 in 0.02 in 0.89 in (1951)
Month to date precipitation T 0.12  
Year to date precipitation 10.92 19.58  
Snow  
Snow 0.00 in 0.10 in 7.00 in (1951)
Month to date snowfall 0.0 1.0  
Since 1 July snowfall 2.2 7.3  
Snow Depth 0.00 in    
Sea Level Pressure  
Sea Level Pressure 29.98 in    
Wind  
Wind Speed 11 mph (NW)    
Max Wind Speed 28 mph    
Max Gust Speed 32 mph    
Visibility 10 miles    
Events      
T = Trace of Precipitation, MM = Missing Value Source: NWS Daily Summary

Daily Weather History Graph

Daily Weather History Graph

Search for Another Location

Airport or City:

Trip Planner

Search our weather history database for the weather conditions in past years. The results will help you decide how hot, cold, wet, or windy it might be!

Date:

Astronomy

Dec. 06, 2012 Rise Set
Actual Time 8:02 AM CST 5:01 PM CST
Civil Twilight 7:29 AM CST 5:34 PM CST
Nautical Twilight 6:53 AM CST 6:11 PM CST
Astronomical Twilight 6:18 AM CST 6:46 PM CST
Moon 12:05 AM CST 12:43 PM CST
Length of Visible Light 10h 04m
Length of Day
8h 58m
Waning Gibbous, 49% of the Moon is Illuminated
Dec 6
Waning Gibbous
Dec 13
New
Dec 19
First Quarter
Dec 28
Full
Jan 4
Last Quarter

Hourly Weather History & Observations

Time (CST) Temp. Windchill Dew Point Humidity Pressure Visibility Wind Dir Wind Speed Gust Speed Precip Events Conditions
12:53 AM 46.0 °F 38.3 °F 28.9 °F 51% 29.81 in 10.0 mi NNW 20.7 mph 28.8 mph N/A   Partly Cloudy
1:53 AM 46.0 °F 38.3 °F 24.1 °F 42% 29.84 in 10.0 mi NNW 20.7 mph - N/A   Partly Cloudy
2:53 AM 46.0 °F 37.8 °F 21.9 °F 39% 29.88 in 10.0 mi NNW 23.0 mph 28.8 mph N/A   Overcast
3:53 AM 45.0 °F 38.2 °F 21.9 °F 40% 29.93 in 10.0 mi NW 15.0 mph 25.3 mph N/A   Overcast
4:53 AM 43.0 °F 34.8 °F 23.0 °F 45% 29.95 in 10.0 mi WNW 18.4 mph - N/A   Mostly Cloudy
5:53 AM 42.1 °F 33.3 °F 19.9 °F 41% 29.97 in 10.0 mi NW 19.6 mph - N/A   Clear
6:53 AM 39.0 °F 29.6 °F 19.0 °F 45% 29.99 in 10.0 mi WNW 18.4 mph - N/A   Clear
7:53 AM 37.0 °F 28.9 °F 19.9 °F 50% 30.02 in 10.0 mi WNW 12.7 mph - N/A   Scattered Clouds
8:53 AM 37.9 °F 28.2 °F 19.0 °F 47% 30.03 in 10.0 mi NW 18.4 mph - N/A   Overcast
9:53 AM 37.9 °F 30.0 °F 21.0 °F 51% 30.04 in 10.0 mi NW 12.7 mph - N/A   Overcast
10:53 AM 39.0 °F 31.4 °F 21.9 °F 50% 30.05 in 10.0 mi WNW 12.7 mph - N/A   Overcast
11:53 AM 39.0 °F 29.9 °F 23.0 °F 53% 30.04 in 10.0 mi WNW 17.3 mph - N/A   Overcast
12:53 PM 42.1 °F 34.9 °F 24.1 °F 49% 30.02 in 10.0 mi WNW 13.8 mph - N/A   Overcast
1:53 PM 42.1 °F 35.2 °F 21.9 °F 45% 30.02 in 10.0 mi NW 12.7 mph - N/A   Partly Cloudy
2:53 PM 43.0 °F 36.4 °F 19.9 °F 40% 30.00 in 10.0 mi WNW 12.7 mph - N/A   Mostly Cloudy
3:53 PM 42.1 °F 36.6 °F 19.0 °F 40% 30.00 in 10.0 mi NW 9.2 mph - N/A   Overcast
4:53 PM 37.0 °F 31.6 °F 18.0 °F 46% 30.01 in 10.0 mi NW 6.9 mph - N/A   Overcast
5:53 PM 35.1 °F 32.2 °F 18.0 °F 50% 30.01 in 10.0 mi North 3.5 mph - N/A   Overcast
6:53 PM 34.0 °F - 19.0 °F 54% 30.02 in 10.0 mi Calm Calm - N/A   Overcast
8:53 PM 34.0 °F - 19.9 °F 56% 30.01 in 10.0 mi Calm Calm - N/A   Overcast
9:53 PM 35.1 °F - 19.9 °F 54% 30.01 in 10.0 mi Calm Calm - N/A   Overcast
10:53 PM 30.9 °F 27.5 °F 21.0 °F 67% 30.00 in 10.0 mi ENE 3.5 mph - N/A   Overcast
11:53 PM 30.9 °F - 21.9 °F 69% 30.00 in 10.0 mi Calm Calm - N/A   Overcast